Location: Caltech
(34.1382°N, 118.1253°W)
Time: 10:12:05
(UTC-07:00)

TMSAT-1 - Visible Passes

Search period start: 03 September 2015 00:00
Search period end: 13 September 2015 00:00
Orbit: 808 x 813 km, 98.5° (Epoch: 02 September)

Date Brightness Start Highest point End Pass type
(mag) Time Alt. Az. Time Alt. Az. Time Alt. Az.
03 Sep 11.6 02:33:55 10° NE 02:35:32 17° ENE 02:35:32 17° ENE visible
03 Sep 10.2 04:13:18 10° N 04:16:41 30° NW 04:16:41 30° NW visible
04 Sep 10.1 03:49:28 10° N 03:52:48 37° NNW 03:52:48 37° NNW visible
05 Sep 10.4 03:25:54 10° NNE 03:28:54 35° NNE 03:28:54 35° NNE visible
05 Sep 11.2 05:09:11 10° NW 05:10:03 11° WNW 05:10:03 11° WNW visible
06 Sep 11.0 03:02:34 10° NNE 03:05:00 26° NE 03:05:00 26° NE visible
06 Sep 10.8 04:43:37 10° NNW 04:46:09 18° NW 04:46:09 18° NW visible
07 Sep 11.6 02:39:35 10° NE 02:41:06 17° NE 02:41:06 17° NE visible
07 Sep 10.5 04:19:19 10° N 04:22:16 25° NW 04:22:16 25° NW visible
08 Sep 12.0 02:17:12 10° NE 02:17:13 10° NE 02:17:13 10° NE visible
08 Sep 10.3 03:55:24 10° N 03:58:22 32° NNW 03:58:22 32° NNW visible
09 Sep 10.6 03:31:46 10° NNE 03:34:28 31° NNE 03:34:28 31° NNE visible
10 Sep 11.1 03:08:22 10° NNE 03:10:34 25° NNE 03:10:34 25° NNE visible
10 Sep 11.0 04:49:50 10° NNW 04:51:43 15° NW 04:51:43 15° NW visible
11 Sep 11.6 02:45:17 10° NE 02:46:40 17° NE 02:46:40 17° NE visible
11 Sep 10.7 04:25:21 10° NNW 04:27:49 22° NW 04:27:49 22° NW visible
12 Sep 12.1 02:22:40 10° NE 02:22:46 10° NE 02:22:46 10° NE visible
12 Sep 10.6 04:01:22 10° N 04:03:55 27° NNW 04:03:55 27° NNW visible
